Home   Weather   Paramus   Past weeks
Flag for USA

Past Weather in Paramus, New Jersey, USA — Yesterday and Last 2 Weeks

Now
41 °F

Overcast.


Feels Like: 33 °F
Forecast: 42 / 33 °F
Wind: 15 mph from Northwest

Location: Teterboro Airport

Current Time: Jan 28, 2020 at 2:42:50 pm

Latest Report: Jan 28, 2020 at 1:51 pm


Visibility: 10 mi

Pressure: 29.80 "Hg

Humidity: 53%

Dew Point: 25 °F

Location of ParamusLocation

Past Weather in Paramus — Graph

°F

Paramus Temperature Yesterday

Maximum temperature yesterday: 45 °F (at 1:51 pm)
Minimum temperature yesterday: 36 °F (at 12:51 am)
Average temperature yesterday: 41 °F

High & Low Weather Summary for the Past Weeks

 TemperatureHumidityPressure
High52 °F (Jan 15, 12:51 pm)100% (Jan 14, 12:16 am)30.68 "Hg (Jan 14, 12:16 am)
Low19 °F (Jan 21, 6:51 am)22% (Jan 20, 3:51 pm)29.65 "Hg (Jan 27, 1:51 pm)
Average37 °F70%30.14 "Hg
* Reported Jan 13 12:51 pm — Jan 28 12:51 pm, Paramus. Weather by CustomWeather, © 2020

Note: Actual official high and low records may vary slightly from our data, if they occured in-between our weather recording intervals... More about our weather records

Paramus Weather History for the Previous 24 Hours

Scroll right to see more
 ConditionsComfort  
Time TempWeatherWind HumidityBarometerVisibility
12:51 pm
Tue, Jan 28
43 °FMostly cloudy.18 mph51%29.80 "Hg10 mi
11:51 am43 °FMostly cloudy.14 mph53%29.81 "Hg10 mi
10:51 am42 °FOvercast.16 mph55%29.83 "Hg10 mi
9:51 am41 °FMostly cloudy.12 mph74%29.83 "Hg10 mi
8:51 am41 °FOvercast.14 mph76%29.82 "Hg10 mi
7:51 am38 °FOvercast.8 mph83%29.80 "Hg10 mi
6:51 am38 °FOvercast.13 mph79%29.78 "Hg10 mi
5:51 am38 °FOvercast.12 mph83%29.76 "Hg10 mi
4:51 am38 °FOvercast.14 mph83%29.75 "Hg10 mi
3:51 am38 °FOvercast.12 mph79%29.75 "Hg10 mi
2:51 am39 °FOvercast.9 mph76%29.75 "Hg10 mi
1:51 am39 °FOvercast.13 mph76%29.75 "Hg10 mi
12:51 am40 °FOvercast.10 mph77%29.75 "Hg10 mi
11:51 pm
Mon, Jan 27
41 °FMostly cloudy.14 mph70%29.74 "Hg10 mi
10:51 pm41 °FOvercast.7 mph80%29.74 "Hg10 mi
9:51 pm41 °FOvercast.9 mph82%29.74 "Hg10 mi
8:51 pm42 °FOvercast.10 mph73%29.73 "Hg10 mi
7:51 pm43 °FOvercast.8 mph71%29.72 "Hg10 mi
6:51 pm43 °FOvercast.7 mph71%29.71 "Hg10 mi
5:51 pm44 °FOvercast.10 mph65%29.69 "Hg10 mi
4:51 pm44 °FOvercast.15 mph71%29.68 "Hg10 mi
3:51 pm45 °FOvercast.16 mph68%29.66 "Hg10 mi
2:51 pm45 °FOvercast.12 mph65%29.65 "Hg10 mi
Weather by CustomWeather, © 2020

See weather overview

Advertising